Location: Bonningues
(50.7927°N, 2.0150°E)
Time: 08:22:36
(UTC+00:00)

Cosmos 1238 Rocket - Pass Details

Date: 08 August 2020
Orbit: 376 x 1027 km, 82.9° (Epoch: 26 September)

Event Time Altitude Azimuth Distance (km) Brightness Sun altitude
Exits shadow 20:28:31 12° 105° (ESE) 1,322 4.2 -9.3°
Maximum altitude 20:29:21 13° 87° (E) 1,258 4.2 -9.4°
Drops below altitude 10° 20:30:46 10° 58° (ENE) 1,403 4.7 -9.5°
Sets 20:33:33 0° 28° (NNE) 2,260 6.1 -9.9°
